Flag for Norway Weather past 2 weeks in Rygge, Norway

Now
39 °F

Sunny.


Feels Like: 37 °F
Forecast: 34 / 50 °F
Wind: 3 mph from Southwest

Location: Rygge

Current Time: Apr 26, 2015 at 7:54:45 AM

Latest Report: Apr 26, 2015 at 7:00 AM


Visibility: 25 mi

Pressure: 29.54 "Hg

Humidity: 78%

Dew point: 33 °F

Location of RyggeLocation

Historic Weather in Rygge — Graph

°F

Rygge temperature yesterday

Maximum temperature yesterday: 48 °F (at 5:00 PM)
Minimum temperature yesterday: 44 °F (at 4:00 AM)
Average temperature yesterday: 45 °F

Past Weeks' High & Low Weather Summary

 TemperatureHumidityPressure
High67 °F (Apr 20, 1:00 PM)100% (Apr 11, 6:00 AM)30.37 "Hg (Apr 11, 6:00 AM)
Low31 °F (Apr 14, 4:00 AM)19% (Apr 23, 2:00 PM)29.41 "Hg (Apr 25, 7:00 PM)
Average47 °F60%29.93 "Hg
* Reported Apr 11 6:00 AM — Apr 26 6:00 AM, Rygge, Weather by CustomWeather, © 2015

Note: Actual official high and low records may vary slightly from our data, if they occured in-between our weather recording intervals... More about our weather records

Advertising

Rygge weather history for previous 24 hours

 ConditionsComfort  
Time TempWeatherWind HumidityBarometerVisibility
6:00 AM
Sun, Apr 26
38 °FSunny.2 mph80%29.50 "Hg31 mi
4:00 AM39 °FClear.3 mph74%29.50 "Hg31 mi
3:00 AM41 °FClear.2 mph75%29.47 "Hg31 mi
2:00 AM43 °FClear.5 mph86%29.44 "Hg28 mi
1:00 AM45 °FPassing clouds.6 mph90%29.41 "Hg12 mi
12:00 AM46 °FLow clouds.8 mph94%29.41 "Hg6 mi
10:00 PM
Sat, Apr 25
46 °FFog.8 mph97%29.41 "Hg2 mi
9:00 PM46 °FFog.9 mph97%29.41 "Hg2 mi
8:00 PM46 °FFog.8 mph97%29.41 "Hg1 mi
7:00 PM47 °FRain showers. Low clouds.8 mph97%29.41 "Hg1 mi
6:00 PM47 °FFog.9 mph95%29.44 "Hg2 mi
5:00 PM48 °FFog.8 mph93%29.44 "Hg2 mi
4:00 PM47 °FFog.8 mph96%29.44 "Hg1 mi
3:00 PM46 °FLow clouds.7 mph96%29.47 "Hg1 mi
2:00 PM46 °FFog.8 mph96%29.47 "Hg1 mi
1:00 PM45 °FLow clouds.6 mph96%29.50 "Hg2 mi
12:00 PM44 °FLight rain. Low clouds.8 mph96%29.50 "Hg3 mi
11:00 AM45 °FLight rain. Low clouds.7 mph95%29.50 "Hg3 mi
10:00 AM45 °FDrizzle. Low clouds.7 mph92%29.53 "Hg8 mi
9:00 AM45 °FLow clouds.7 mph89%29.53 "Hg14 mi
8:00 AM45 °FLow clouds.6 mph89%29.54 "Hg15 mi
7:00 AM44 °FLow clouds.5 mph92%29.55 "Hg11 mi
Weather by CustomWeather, © 2015

See weather overviewHow to use our weather pages